默认 日期 大小 文件数 浏览量 最新下载 xml
ultimate/磁力链接相关资源由用户搜索指令自动获取,结果来源于网络,本站不存储任何资料,亦不承担任何责任,请于24小时内删除,搜索到274995个磁力,显示前4000条数据,用时166ms。
    {"Readme!!.url": 200, "WWW.SUMOTORRENT.SZ.jpg": 91636, "KMS Office Activator 2018 Ultimate 8.3.4.exe": 15120269, "KMS Office Activator 2018 Ultimate 8.3.4.nfo": 292}
创建时间: 2025-04-28 11:47:03 大小:14.51 MB 文件数量:4 热度:1 最近下载:2025-04-28 22:50:02
    {"Torrent downloaded from TorReviver torrents at BTS.to.txt": 68, "YTD Video Downloader Ultimate v7 6 3 3 + Fix {CracksHash}.zip": 24794545}
创建时间: 2025-04-28 10:53:04 大小:23.65 MB 文件数量:2 热度:1 最近下载:2025-04-28 22:46:03
    {"WWW.SUMOTORRENT.SZ.jpg": 131580, "Torrent downloaded from H33t.to.txt": 28, "Corel VideoStudio Ultimate X11 v21.6.0.61 (x86x64).exe": 20455137}
创建时间: 2025-04-28 10:35:42 大小:19.63 MB 文件数量:3 热度:1 最近下载:2025-04-28 22:45:01
    {"Readme.pdf": 10104, "Torrent downloaded from AhaShare.com.txt": 68, "MiniTool Partition Wizard Pro Ultimate 15.25.7.exe": 6950962}
创建时间: 2025-04-28 10:30:40 大小:6.64 MB 文件数量:3 热度:1 最近下载:2025-04-28 22:45:03
    {"Readme!.inf": 564, "Torrent downloaded from TorReviver torrents at BTS.to.txt": 24, "Any Video Converter Ultimate 7.8.9 Multilingual +Serial Key.exe": 20576780, "Any Video Converter Ultimate 7.8.9 Multilingual +Serial Key.nfo": 920}
创建时间: 2025-04-28 10:29:48 大小:19.62 MB 文件数量:4 热度:1 最近下载:2025-04-28 22:44:01
    {"Readme!.inf": 660, "Windows 7 SP1 Ultimate (86&64 Bit).exe": 6739188}
创建时间: 2025-04-28 10:14:07 大小:6.43 MB 文件数量:2 热度:1 最近下载:2025-04-28 22:44:04
    {"Chapter 1-Power Strategy": {"Additional_Files": {"ENG+POWER+HR+08+HRIS.pdf": 21803748, "ENG+POWER+HR+02+Audit.pdf": 15148939, "ENG+POWER+HR+07+Survey.pdf": 7245076, "ENG+POWER+HR+10+Culture.pdf": 31991659, "ENG+POWER+HR+03+Strategy.pdf": 3926630, "ENG+ ...
创建时间: 2025-04-28 09:54:36 大小:9.39 GB 文件数量:234 热度:4 最近下载:2025-09-19 02:53:05
    {"uhg.nfo": 39, "uhg-1.jpg": 488022, "uhg-back.jpg": 141264, "uhg-front.jpg": 133379, "Ultimate Holly Garner.mp4": 1340285472}
创建时间: 2025-04-28 09:45:48 大小:1.25 GB 文件数量:5 热度:3 最近下载:2025-09-14 00:02:34
    {"crack": {"run_876ff.exe": 386514}, "Keys.inf": 608, "Torrent downloaded from H33t.to.txt": 60, "Any Video Converter Ultimate 22.5.9 Multilingual +Serial Key.exe": 9359954, "Any Video Converter Ultimate 22.5.9 Multilingual +Serial Key.nfo": 844}
创建时间: 2025-04-28 09:27:25 大小:9.3 MB 文件数量:5 热度:1 最近下载:2025-04-28 22:40:01
    ... (Europe).zip": 481966148, "Naruto - Ultimate Ninja Heroes (Europe).zip": 530117033 ... .zip": 416650357, "Naruto Shippuden - Ultimate Ninja Impact (Europe).zip": 960401385 ... , "Naruto Shippuden - Ultimate Ninja Heroes 3 (Europe).zip ...
创建时间: 2025-04-28 09:17:37 大小:14.03 GB 文件数量:54 热度:4 最近下载:2025-09-18 17:12:13
    {"MD5": {"QuickSFV.EXE": 103424, "QuickSFV.ini": 155, "fitgirl-bins.md5": 486}, "Setup.exe": 13133312, "data0.bin": 6530993, "fg-01.bin": 1015895082, "fg-02.bin": 871086602, "fg-03.bin": 759434346, "fg-04.bin": 2734805, "fg-05.bin": 4127944, "fg-selective- ...
创建时间: 2025-04-28 08:50:11 大小:3.61 GB 文件数量:14 热度:1 最近下载:2025-04-28 22:36:02
    {"Windows 10 Permanent Activator Ultimate v4.7.exe": 13833087, "Windows 10 Permanent Activator Ultimate v4.7.nfo": 1000}
创建时间: 2025-04-28 08:32:06 大小:13.19 MB 文件数量:2 热度:1 最近下载:2025-04-28 22:33:04
    {"SKIDROWRELOADED.COM.txt": 35, "tenoke-big.buck.hunter.ultimate.trophy.iso": 11838019584, "tenoke-big.buck.hunter.ultimate.trophy.nfo": 32641}
创建时间: 2025-04-28 08:17:45 大小:11.03 GB 文件数量:3 热度:1 最近下载:2025-04-28 22:32:03
    {"Install.Notes.inf": 456, "WWW.SUMOTORRENT.SZ.jpg": 68796, "Torrent downloaded from 1337x.org.txt": 44, "KMS Office Activator 2017 Ultimate 4.4.6.exe": 3229145}
创建时间: 2025-04-28 08:11:55 大小:3.15 MB 文件数量:4 热度:1 最近下载:2025-04-28 22:31:03
    {"Fix": {"Simkey": 5281}, "Reg Patch.reg": 274, "Instructions.txt": 1469, "PowerDirector_23.3.1623.0_Ultimate.exe": 684674593}
创建时间: 2025-04-27 19:59:21 大小:652.96 MB 文件数量:4 热度:1 最近下载:2025-04-28 22:30:01
    {"crack": {"run_f56c9.exe": 170277}, "www.MEGAtorrent.co.jpg": 84020, "Torrent downloaded from AhaShare.com.txt": 84, "CyberLink PowerDirector Ultimate v21.6.3111.0 Patched -.exe": 18037239}
创建时间: 2025-04-27 19:40:02 大小:17.44 MB 文件数量:4 热度:1 最近下载:2025-04-28 22:28:03
    ... .Fat.Quiz.Best.Bits.S01E04.Ultimate.Jokes.1080p.HDTV.H264-DARKFLiX ...
创建时间: 2025-04-27 18:54:36 大小:1.59 GB 文件数量:7 热度:1 最近下载:2025-04-28 22:23:02
    {"crack": {"run_f119c.exe": 75519}, "Keys.url": 620, "www.FENOPY.se.jpg": 78368, "Torrent downloaded from Divxhunt.me.txt": 44, "Windows KMS Activator Ultimate 2018 4.4.exe": 16856624}
创建时间: 2025-04-27 18:49:19 大小:16.22 MB 文件数量:5 热度:1 最近下载:2025-04-28 22:23:03
    {"autorun.url": 1284, "Wondershare Video Converter Ultimate 14.5.3 FULL + Crack.exe": 5664654}
创建时间: 2025-04-27 18:12:53 大小:5.4 MB 文件数量:2 热度:1 最近下载:2025-04-28 22:19:05
    {"Crack": {"Patch.exe": 546304, "readme.txt": 192}, "UPASetup.msi": 1483776}
创建时间: 2025-04-27 18:11:50 大小:1.94 MB 文件数量:3 热度:1 最近下载:2025-04-28 22:18:03